Regional Weather Roundup
Issued by NWS

Home | Current Version | Previous Version | Text Only | Print | Product List | Glossary On
Versions: 1 2 3 4 5 6 7 8 9 10 11 12 13 14 15 16 17 18 19 20 21 22 23 24 25 26 27 28 29 30 31 32 33 34 35 36 37 38 39 40 41 42 43 44 45 46 47 48 49 50
000
ASUS45 KBOI 281710
RWRID
WEATHER ROUNDUP FOR IDAHO
NATIONAL WEATHER SERVICE BOISE ID
1100 AM MDT MON JUL 28 2014

NOTE: "FAIR" INDICATES FEW OR NO CLOUDS BELOW 12000 FEET
WITH NO SIGNIFICANT WEATHER AND/OR OBSTRUCTIONS TO VISIBILITY

IDZ012-014-281800-
SOUTHWEST IDAHO


CITY           SKY/WX    TMP DP  RH WIND       PRES   REMARKS
BOISE          PTSUNNY   83  42  23 VRB3      30.09R
CALDWELL       PTSUNNY   79  50  36 CALM      30.09R
MOUNTAIN HOME  PTSUNNY   81  41  24 NE3       30.11R
$$

IDZ016-017-281800-
SOUTHCENTRAL IDAHO


CITY           SKY/WX    TMP DP  RH WIND       PRES   REMARKS
BURLEY         CLOUDY    76  49  38 E6        30.18R
JEROME         CLOUDY    75  52  44 N5        30.19R
TWIN FALLS     CLOUDY    85  43  22 SW10      30.18S
$$

IDZ019>023-281800-
SOUTHEAST IDAHO


CITY           SKY/WX    TMP DP  RH WIND       PRES   REMARKS
IDAHO FALLS    PTSUNNY   81  51  35 NW6       30.23S
POCATELLO      SUNNY     80  40  23 CALM      30.22S
REXBURG        PTSUNNY   80  45  28 NE6       30.24F
$$

IDZ006-010-011-018-031-032-281800-
CENTRAL IDAHO MOUNTAINS


CITY           SKY/WX    TMP DP  RH WIND       PRES   REMARKS
MCCALL         PTSUNNY   76  40  27 N7        30.23S
HAILEY         CLOUDY    72  52  49 S5        30.29R
STANLEY          N/A     69  40  34 SE3       30.37F
SALMON         PTSUNNY   70  41  35 NW5       30.21F
CHALLIS        CLOUDY    72  30  21 S5        30.27S
$$

IDZ002-004-006-007-026-281800-
NORTHERN IDAHO


CITY           SKY/WX    TMP DP  RH WIND       PRES   REMARKS
LEWISTON       PTSUNNY   84  50  30 NW8       30.05F
LOWELL           N/A     71  53  52 N5        30.12F
COEUR D`ALENE  MOSUNNY   77  52  41 E14G20    30.12F
MULLAN PASS    MOSUNNY   71  41  33 VRB3      30.36F
$$



USA.gov is the U.S. government's official web portal to all federal, state and local government web resources and services.